Retour au catalogue

OV1-20/OV1-21 DEB

ActifPO
NORAD 5384·DEBRIS·🇺🇸 United States

Lancé Aug 7, 1971 depuis Vandenberg Space Force Base

Loading…

Prochains Passages (prochaines 24 heures)

TLE

FraisSource: Space-Track

Époque: Sep 14, 2026, 13:55 UTC

1 05384U 71067N   26257.58042133  .00000218  00000-0  81931-4 0  9996
2 05384  87.6337   9.4767 0080152 144.2478 216.4119 14.25330898855965

Suivez OV1-20/OV1-21 DEB en temps réel avec AllMySat

Download on the App Store